Regional Weather Roundup
Issued by NWS

Home | Current Version | Previous Version | Graphics & Text | Print | Product List | Glossary On
Versions: 1 2 3 4 5 6 7 8 9 10 11 12 13 14 15 16 17 18 19 20 21 22 23 24 25 26 27 28 29 30 31 32 33 34 35 36 37 38 39 40 41 42 43 44 45 46 47 48 49 50
000
ASUS43 KLSX 282359
RWRMO

WEATHER SUMMARY FOR MISSOURI
NATIONAL WEATHER SERVICE SPRINGFIELD MO
700 PM CDT SAT MAR 28 2015

NOTE: "FAIR" INDICATES FEW OR NO CLOUDS BELOW 12,000 FEET WITH NO
       SIGNIFICANT WEATHER AND/OR OBSTRUCTIONS TO VISIBILITY.
       CURRENT SKY AND/OR WEATHER CONDITIONS ARE NOT AVAILABLE FOR
       CHILLICOTHE AND FARMINGTON.

MOZ001>031-035>038-043-044-053-054-290100-
...NORTHERN AND WESTERN MISSOURI...

CITY           SKY/WX    TMP DP  RH WIND       PRES   REMARKS
KANSAS CTY INT CLEAR     50  31  48 S14       30.11S
6HR MIN TEMP:  47; 6HR MAX TEMP:  53;

KANSAS C DTWN  CLEAR     52  30  43 SE13      30.12S
6HR MIN TEMP:  48; 6HR MAX TEMP:  55;

LEE`S SUMMIT   CLEAR     50  30  46 SE9       30.13S
6HR MIN TEMP:  46; 6HR MAX TEMP:  52;

ST JOSEPH      CLEAR     51  31  46 SE13      30.11S
6HR MIN TEMP:  48; 6HR MAX TEMP:  54;

CHILLICOTHE      N/A     48  30  49 SE10      30.17S
6HR MIN TEMP:  43; 6HR MAX TEMP:  50;

KIRKSVILLE     CLEAR     43  24  47 SE13      30.19S
6HR MIN TEMP:  43; 6HR MAX TEMP:  47;


$$
MOZ066>068-077>081-088>096-101>105-290100-
...SOUTHWEST MISSOURI...

CITY           SKY/WX    TMP DP  RH WIND       PRES   REMARKS
SPRINGFIELD    CLEAR     43  32  65 SE15      30.15R
6HR MIN TEMP:  40; 6HR MAX TEMP:  47;

JOPLIN         CLEAR     54  36  50 E16       30.09R
6HR MIN TEMP:  54; 6HR MAX TEMP:  60;


$$
MOZ032>034-039>042-045>050-055>058-069>072-290100-
...CENTRAL MISSOURI...

CITY           SKY/WX    TMP DP  RH WIND       PRES   REMARKS
COLUMBIA       CLEAR     46  27  47 SE10      30.19S
6HR MIN TEMP:  43; 6HR MAX TEMP:  49;

JEFFERSON CITY CLEAR     47  27  45 SE7       30.20S
6HR MIN TEMP:  42; 6HR MAX TEMP:  49;

ROLLA          PTCLDY    45  29  53 S9        30.18S
6HR MIN TEMP:  40; 6HR MAX TEMP:  46;

SEDALIA        CLEAR     48  30  49 SE10      30.17S
6HR MIN TEMP:  45; 6HR MAX TEMP:  52;

OSAGE BEACH    PTCLDY    45  28  53 SE7       30.20S

$$
MOZ051-052-059>065-290100-
...EAST CENTRAL MISSOURI...

CITY           SKY/WX    TMP DP  RH WIND       PRES   REMARKS
ST LOUIS INTL  CLEAR     44  17  33 E10       30.26S
6HR MIN TEMP:  40; 6HR MAX TEMP:  46;

SPIRIT OF STL  CLEAR     44  17  33 E8        30.25R
6HR MIN TEMP:  42; 6HR MAX TEMP:  47;

ST CHARLES     CLEAR     41  22  46 E13       30.26S
6HR MIN TEMP:  39; 6HR MAX TEMP:  45;


$$
MOZ072>076-082>087-097>100-106>115-290100-
...SOUTH CENTRAL AND SOUTHEAST MISSOURI...

CITY           SKY/WX    TMP DP  RH WIND       PRES   REMARKS
CAPE GIRARDEAU CLEAR     43  26  51 SE6       30.27S
6HR MIN TEMP:  41; 6HR MAX TEMP:  48;

FARMINGTON     CLEAR     43  21  42 E12       30.26S
6HR MIN TEMP:  41; 6HR MAX TEMP:  48;

POPLAR BLUFF   CLEAR     44  28  53 SE5       30.27R
6HR MIN TEMP:  42; 6HR MAX TEMP:  46;

WEST PLAINS    CLOUDY    37  30  75 SE6       30.25R
6HR MIN TEMP:  33; 6HR MAX TEMP:  38;


$$



USA.gov is the U.S. government's official web portal to all federal, state and local government web resources and services.